ANIK F1 (26624 NORAD) Tracking and Keplerian Element Data

This shows tracking and keplerian element data for the satellite.

Feedback or suggestion? Click here.




ElementValue
Catalog26624
NameANIK F1
Epoch Orbit3700
Epoch Day286.59828146
Epoch Year2024
RAAN82.242
Inclination3.6011
Eccentricity0.000726
Argument of Perigee93.3887
Mean Anonmoly312.2329
Mean Motion1.00271767
Decay Rate-6E-07
L11 26624U 00076A 24286.59828146 -.00000060 00000+0 00000+0 0 9993
L22 26624 3.6011 82.2420 0007260 93.3887 312.2329 1.00271767 37007



Live tracking and technical data element details for ANIK F1 (NORAD 26624). ANIK F1 can be tracked NOW for your location showing map with azimuth and elevation plus other details from your city location.







IsCatalogInMostPopularTable: catalog: 26624, numindb: 340
Update: records affected: 1



GetName: 26624 ANIK F1

Hit Count: updated at: Thu, 15 May 2025 18:20:29 GMT